Location: Cadeilhan
(42.8161°N, 0.3161°E)
Time: 07:37:10
(UTC+00:00)

METEOR-M - Pass Details

Date: 18 February 2020
Orbit: 815 x 820 km, 98.4° (Epoch: 03 April)

Event Time Altitude Azimuth Distance (km) Brightness Sun altitude
Rises 05:41:45 0° 9° (N) 3,357 7.4 -13.6°
Reaches altitude 10° 05:44:09 10° 5° (N) 2,420 6.6 -13.2°
Maximum altitude 05:49:22 56° 289° (WNW) 968 4.2 -12.2°
Drops below altitude 10° 05:54:33 10° 212° (SSW) 2,401 6.3 -11.3°
Sets 05:56:55 0° 208° (SSW) 3,328 7.1 -10.9°
